CW1053 Weather Reports


time (UTC)temp
F
wind
direction
speed
knots
gust
knots
rain 1hr
in
rain 24hr
in
rain mn
in
humidity
%
barometer
mb
20260507031010 62 262 0.0 0.0 0.02 0.02 0.02 88 1009.0
20260507030516 62 261 0.0 0.0 0.02 0.02 0.02 88 1008.8
20260507030030 63 265 0.0 0.0 0.02 0.02 0.02 87 1008.9
20260507025511 63 267 0.0 0.0 0.01 0.01 0.01 87 1008.8
20260507025006 63 267 0.0 2.6 0.01 0.01 0.01 86 1008.8
20260507024524 64 255 0.9 2.6 0.01 0.01 0.01 85 1008.8
20260507024009 65 260 0.9 2.6 0.00 0.00 0.00 83 1008.7
20260507023507 66 254 1.7 2.6 0.00 0.00 0.00 80 1008.8
20260507023022 66 264 0.9 2.6 0.00 0.00 0.00 79 1008.7
20260507022509 66 269 0.0 0.9 0.00 0.00 0.00 79 1008.3
20260507022011 66 269 0.0 0.9 0.00 0.00 0.00 79 1008.3
20260507021524 67 258 0.0 1.7 0.00 0.00 0.00 78 1008.2
20260507021011 66 257 0.0 1.7 0.00 0.00 0.00 78 1008.3
20260507020509 66 264 0.0 1.7 0.00 0.00 0.00 79 1008.6
20260507020029 66 270 0.0 0.9 0.00 0.00 0.00 79 1008.5
20260507015511 66 270 0.0 0.0 0.00 0.00 0.00 79 1008.5
20260507015013 66 270 0.0 0.9 0.00 0.00 0.00 78 1008.4
20260507014527 66 258 0.0 0.9 0.00 0.00 0.00 78 1008.3
20260507014008 66 258 0.0 0.9 0.00 0.00 0.00 78 1008.5
20260507013507 67 257 0.0 0.9 0.00 0.00 0.00 78 1008.3
20260507013019 67 257 0.0 0.9 0.00 0.00 0.00 78 1008.4
20260507012506 67 257 0.0 0.9 0.00 0.00 0.00 78 1008.6
20260507012011 67 261 0.0 0.0 0.00 0.00 0.00 78 1008.7
20260507011524 66 261 0.0 0.0 0.00 0.00 0.00 78 1008.7
20260507011009 66 261 0.0 0.0 0.00 0.00 0.00 78 1008.4
20260507010507 66 261 0.0 0.0 0.00 0.00 0.00 78 1008.1
20260507010033 66 261 0.0 0.0 0.00 0.00 0.00 78 1008.1
20260507005504 66 261 0.0 0.0 0.00 0.00 0.00 78 1008.1
20260507005006 66 261 0.0 0.0 0.00 0.00 0.00 78 1008.2
20260507004515 67 261 0.0 0.0 0.00 0.00 0.00 77 1008.2
20260507004006 66 261 0.0 0.0 0.00 0.00 0.00 77 1008.2
20260507003508 66 261 0.0 0.0 0.00 0.00 0.00 77 1008.0
20260507003015 66 261 0.0 0.0 0.00 0.00 0.00 77 1008.0
20260507002507 66 261 0.0 0.0 0.00 0.00 0.00 77 1007.9
20260507002011 66 261 0.0 0.0 0.00 0.00 0.00 77 1008.0
20260507001522 67 261 0.0 0.0 0.00 0.00 0.00 77 1008.0
20260507001006 67 261 0.0 0.0 0.00 0.00 0.00 76 1007.9
20260507000508 67 261 0.0 0.0 0.00 0.00 0.00 76 1008.1
20260507000024 67 261 0.0 0.0 0.00 0.00 0.00 76 1008.1
20260506235507 67 261 0.0 0.0 0.00 0.00 0.00 75 1008.0
20260506235009 67 261 0.0 0.0 0.00 0.00 0.00 76 1008.0
20260506234531 67 261 0.0 0.0 0.00 0.00 0.00 75 1008.0
20260506234006 67 261 0.0 0.9 0.00 0.00 0.00 75 1007.9
20260506233510 68 261 0.0 1.7 0.00 0.00 0.00 74 1007.7
20260506233016 68 261 0.0 1.7 0.00 0.00 0.00 74 1007.9
20260506232507 68 255 0.9 1.7 0.00 0.00 0.00 74 1007.9
20260506232008 68 267 0.9 1.7 0.00 0.00 0.00 74 1007.9
20260506231521 68 271 0.0 1.7 0.00 0.00 0.00 73 1007.8
20260506231010 68 257 0.9 1.7 0.00 0.00 0.00 73 1007.6
20260506230508 68 280 0.0 1.7 0.00 0.00 0.00 74 1007.3
20260506230028 68 264 0.9 2.6 0.00 0.00 0.00 73 1007.7
20260506225506 68 260 0.9 2.6 0.00 0.00 0.00 73 1007.8
20260506225007 68 236 0.0 1.7 0.00 0.00 0.00 74 1007.8
20260506224524 68 266 0.9 1.7 0.00 0.00 0.00 74 1007.7
20260506224006 68 263 0.0 0.9 0.00 0.00 0.00 74 1007.7
20260506223510 68 262 0.0 2.6 0.00 0.00 0.00 74 1007.7
20260506223014 68 262 0.9 2.6 0.00 0.00 0.00 74 1007.8
20260506222504 68 257 0.0 2.6 0.00 0.00 0.00 74 1007.7
20260506222006 68 218 0.9 2.6 0.00 0.00 0.00 74 1007.7
20260506221519 68 260 0.9 3.5 0.00 0.00 0.00 74 1007.7
20260506221007 68 243 1.7 3.5 0.00 0.00 0.00 73 1007.6
20260506220505 68 252 0.0 1.7 0.00 0.00 0.00 74 1007.6
20260506220033 68 260 0.0 1.7 0.00 0.00 0.00 74 1007.5
20260506215512 68 265 0.0 3.5 0.00 0.00 0.00 74 1007.6
20260506215009 68 236 0.9 4.3 0.00 0.00 0.00 74 1007.6
20260506214507 67 260 1.7 4.3 0.00 0.00 0.00 74 1007.5
20260506214004 67 252 0.9 5.2 0.00 0.00 0.00 74 1007.5
20260506213503 68 243 1.7 6.1 0.00 0.00 0.00 74 1007.5
20260506213012 67 262 1.7 6.1 0.00 0.00 0.00 74 1007.4
20260506212503 68 254 1.7 3.5 0.00 0.00 0.00 74 1007.4
20260506212007 68 264 0.9 3.5 0.00 0.00 0.00 74 1007.3
20260506211517 68 261 0.9 5.2 0.00 0.00 0.00 74 1007.2
20260506211007 68 236 1.7 5.2 0.00 0.00 0.00 73 1007.2
20260506210507 68 266 1.7 3.5 0.00 0.00 0.00 74 1007.0
20260506210025 68 259 0.9 3.5 0.00 0.00 0.00 74 1006.9
20260506205507 68 250 1.7 4.3 0.00 0.00 0.00 74 1007.0
20260506205010 67 263 0.9 4.3 0.00 0.00 0.00 75 1006.9
20260506204528 67 271 0.9 2.6 0.00 0.00 0.00 74 1007.0
20260506204008 68 250 0.9 2.6 0.00 0.00 0.00 74 1007.0
20260506203502 67 262 0.9 2.6 0.00 0.00 0.00 75 1006.9
20260506203009 67 263 0.9 3.5 0.00 0.00 0.00 76 1006.8
20260506202504 66 258 0.9 3.5 0.00 0.00 0.00 76 1006.9
20260506202007 66 255 0.9 0.9 0.00 0.00 0.00 76 1007.0
20260506201525 66 250 0.0 1.7 0.00 0.00 0.00 77 1007.1
20260506201007 66 262 0.0 2.6 0.00 0.00 0.00 77 1007.2
20260506200506 66 243 0.9 2.6 0.00 0.00 0.00 77 1007.2
20260506200018 66 259 0.9 1.7 0.00 0.00 0.00 77 1007.3
20260506195509 66 263 0.9 2.6 0.00 0.00 0.00 77 1007.4
20260506195010 65 245 0.9 2.6 0.00 0.00 0.00 77 1007.5
20260506194524 65 253 0.9 4.3 0.00 0.00 0.00 77 1007.5
20260506194007 66 242 1.7 4.3 0.00 0.00 0.00 77 1007.5
20260506193511 66 264 0.9 3.5 0.00 0.00 0.00 76 1007.7
20260506193026 66 254 0.9 5.2 0.00 0.00 0.00 76 1007.7
20260506192504 66 229 1.7 5.2 0.00 0.00 0.00 74 1007.8
20260506192004 66 256 0.9 3.5 0.00 0.00 0.00 74 1007.7
20260506191513 66 259 0.0 3.5 0.00 0.00 0.00 74 1007.6
20260506191007 66 265 0.9 4.3 0.00 0.00 0.00 74 1007.6
20260506190505 66 283 0.9 4.3 0.00 0.00 0.00 74 1007.6
20260506190025 66 250 0.9 4.3 0.00 0.00 0.00 74 1007.6
20260506185506 66 254 0.9 6.1 0.00 0.00 0.00 74 1007.6
20260506185006 66 244 0.9 6.1 0.00 0.00 0.00 75 1007.7
20260506184523 66 242 0.9 3.5 0.00 0.00 0.00 75 1007.7
20260506184009 66 237 1.7 5.2 0.00 0.00 0.00 74 1007.7
20260506183507 66 226 1.7 5.2 0.00 0.00 0.00 75 1007.8
20260506183024 66 215 1.7 4.3 0.00 0.00 0.00 75 1007.7
20260506182508 66 228 1.7 3.5 0.00 0.00 0.00 76 1007.8
20260506182012 66 258 0.0 1.7 0.00 0.00 0.00 75 1007.8
20260506181526 67 263 0.0 6.1 0.00 0.00 0.00 74 1007.9
20260506181003 68 239 2.6 7.0 0.00 0.00 0.00 73 1008.2
20260506180505 69 219 2.6 7.0 0.00 0.00 0.00 68 1008.1
20260506180022 69 254 1.7 6.1 0.00 0.00 0.00 67 1008.0
20260506175504 69 252 1.7 4.3 0.00 0.00 0.00 69 1008.1
20260506175007 70 262 0.9 6.1 0.00 0.00 0.00 68 1008.2
20260506174525 70 232 2.6 6.1 0.00 0.00 0.00 66 1008.2
20260506174008 70 218 0.9 4.3 0.00 0.00 0.00 69 1008.0
20260506173510 69 242 1.7 4.3 0.00 0.00 0.00 69 1008.0
20260506173024 69 257 0.0 0.9 0.00 0.00 0.00 71 1007.9
20260506172507 69 261 0.0 1.7 0.00 0.00 0.00 72 1007.9
20260506172009 68 260 0.0 2.6 0.00 0.00 0.00 74 1008.0
20260506171537 68 257 0.0 2.6 0.00 0.00 0.00 73 1008.2
20260506171008 67 245 0.9 2.6 0.00 0.00 0.00 74 1008.2
20260506170514 67 262 0.0 1.7 0.00 0.00 0.00 74 1008.2
20260506170011 67 257 0.0 1.7 0.00 0.00 0.00 74 1008.4
20260506165508 66 258 0.0 1.7 0.00 0.00 0.00 75 1008.7
20260506165006 66 257 0.9 1.7 0.00 0.00 0.00 74 1008.9
20260506164517 66 259 0.0 0.9 0.00 0.00 0.00 76 1009.1
20260506164009 66 257 0.0 0.0 0.00 0.00 0.00 74 1009.2
20260506163508 66 257 0.0 0.0 0.00 0.00 0.00 76 1009.4
20260506163023 66 259 0.0 0.0 0.00 0.00 0.00 75 1009.5
20260506162507 66 259 0.0 0.0 0.00 0.00 0.00 74 1009.6
20260506162011 66 257 0.0 0.0 0.00 0.00 0.00 74 1009.7
20260506161525 67 256 0.0 0.9 0.00 0.00 0.00 73 1009.6
20260506161008 67 267 0.0 1.7 0.00 0.00 0.00 72 1009.9
20260506160508 67 261 0.9 2.6 0.00 0.00 0.00 71 1010.0
20260506160028 68 254 0.9 2.6 0.00 0.00 0.00 68 1009.9
20260506155508 69 261 0.0 4.3 0.00 0.00 0.00 66 1009.9
20260506155004 70 246 0.9 4.3 0.00 0.00 0.00 62 1009.8
20260506154519 70 256 1.7 4.3 0.00 0.00 0.00 60 1009.7
20260506154008 70 250 1.7 6.1 0.00 0.00 0.00 60 1009.7
20260506153510 70 222 1.7 6.1 0.00 0.00 0.00 59 1009.7
20260506153020 71 240 2.6 6.1 0.00 0.00 0.00 59 1009.7
20260506152508 70 200 0.9 5.2 0.00 0.00 0.00 61 1009.8
20260506152011 70 224 1.7 4.3 0.00 0.00 0.00 60 1009.8
20260506151526 70 252 0.9 3.5 0.00 0.00 0.00 60 1009.7
20260506151010 70 258 0.9 2.6 0.00 0.00 0.00 61 1009.6
20260506150513 70 238 0.9 4.3 0.00 0.00 0.00 60 1009.7
20260506150028 70 269 1.7 4.3 0.00 0.00 0.00 60 1009.8
20260506145508 70 243 1.7 7.0 0.00 0.00 0.00 59 1009.9
20260506145011 71 214 1.7 7.0 0.00 0.00 0.00 60 1009.9
20260506144527 71 269 1.7 4.3 0.00 0.00 0.00 59 1009.9
20260506144013 71 261 1.7 4.3 0.00 0.00 0.00 59 1009.9
20260506143506 71 260 0.9 3.5 0.00 0.00 0.00 59 1009.9
20260506143019 71 280 0.9 4.3 0.00 0.00 0.00 60 1009.8
20260506142511 71 249 1.7 4.3 0.00 0.00 0.00 60 1009.8
20260506142010 71 255 1.7 3.5 0.00 0.00 0.00 61 1009.8
20260506141520 70 271 0.9 4.3 0.00 0.00 0.00 62 1009.8
20260506141007 70 276 0.9 4.3 0.00 0.00 0.00 62 1009.7
20260506140507 70 222 1.7 4.3 0.00 0.00 0.00 61 1009.7
20260506140032 70 254 1.7 4.3 0.00 0.00 0.00 62 1009.6
20260506135507 70 268 0.9 1.7 0.00 0.00 0.00 62 1009.6
20260506135006 70 251 0.0 4.3 0.00 0.00 0.00 62 1009.6
20260506134525 70 237 0.9 4.3 0.00 0.00 0.00 62 1009.5
20260506134014 70 237 1.7 5.2 0.00 0.00 0.00 61 1009.6
20260506133510 70 217 2.6 5.2 0.00 0.00 0.00 61 1009.7
20260506133030 70 256 1.7 5.2 0.00 0.00 0.00 62 1009.7
20260506132508 71 231 1.7 4.3 0.00 0.00 0.00 62 1009.9
20260506132008 70 254 0.9 4.3 0.00 0.00 0.00 62 1009.8
20260506131520 70 247 0.9 5.2 0.00 0.00 0.00 63 1009.8
20260506131003 70 256 1.7 5.2 0.00 0.00 0.00 64 1009.9
20260506130503 70 259 0.9 3.5 0.00 0.00 0.00 64 1010.0
20260506130009 69 267 1.7 4.3 0.00 0.00 0.00 65 1009.9
20260506125503 69 259 0.9 4.3 0.00 0.00 0.00 66 1009.9
20260506125005 68 255 0.9 4.3 0.00 0.00 0.00 67 1009.8
20260506124508 68 220 1.7 4.3 0.00 0.00 0.00 68 1009.8
20260506124003 67 230 0.9 2.6 0.00 0.00 0.00 71 1010.0
20260506123504 66 254 0.9 2.6 0.00 0.00 0.00 70 1009.9
20260506123010 66 252 0.9 1.7 0.00 0.00 0.00 71 1009.9
20260506122504 66 259 0.9 1.7 0.00 0.00 0.00 71 1010.0
20260506122007 66 254 0.9 3.5 0.00 0.00 0.00 71 1010.0
20260506121509 66 264 0.0 3.5 0.00 0.00 0.00 71 1010.0
20260506121004 66 219 0.9 3.5 0.00 0.00 0.00 70 1010.0
20260506120504 66 259 0.0 2.6 0.00 0.00 0.00 70 1010.0
20260506120009 66 256 0.0 1.7 0.00 0.00 0.00 70 1010.1
20260506115504 66 247 0.0 1.7 0.00 0.00 0.00 69 1010.1
20260506115003 67 250 0.0 0.9 0.00 0.00 0.00 69 1010.2
20260506114528 67 264 0.0 1.7 0.00 0.00 0.00 70 1010.2
20260506114003 67 257 0.0 3.5 0.00 0.00 0.00 70 1010.2
20260506113504 67 257 0.9 3.5 0.00 0.00 0.00 69 1010.2
20260506113010 67 244 0.0 0.9 0.00 0.00 0.00 70 1010.2
20260506112504 66 240 0.0 2.6 0.00 0.00 0.00 72 1010.3
20260506112003 65 254 0.9 2.6 0.00 0.00 0.00 73 1010.2
20260506111510 65 234 1.7 2.6 0.00 0.00 0.00 74 1010.3
20260506111006 64 254 0.9 3.5 0.00 0.00 0.00 74 1010.2
20260506110505 65 275 0.9 3.5 0.00 0.00 0.00 74 1010.2
20260506110015 65 248 0.9 2.6 0.00 0.00 0.00 74 1010.1
20260506105509 64 255 0.9 2.6 0.00 0.00 0.00 75 1010.1
20260506105004 64 216 0.9 2.6 0.00 0.00 0.00 76 1010.0
20260506104510 63 257 0.9 2.6 0.00 0.00 0.00 76 1010.0
20260506104005 63 251 0.9 2.6 0.00 0.00 0.00 77 1010.0
20260506103507 63 261 0.9 3.5 0.00 0.00 0.00 78 1010.0
20260506103008 62 174 0.9 3.5 0.00 0.00 0.00 78 1010.1
20260506102508 62 259 0.9 2.6 0.00 0.00 0.00 78 1010.1
20260506102006 62 249 0.9 2.6 0.00 0.00 0.00 78 1010.1
20260506101511 62 252 0.0 2.6 0.00 0.00 0.00 78 1010.0
20260506101003 62 255 1.7 2.6 0.00 0.00 0.00 78 1009.9
20260506100503 62 257 0.0 2.6 0.00 0.00 0.00 78 1009.8
20260506100021 62 261 0.9 2.6 0.00 0.00 0.00 78 1009.8
20260506095502 62 264 0.0 1.7 0.00 0.00 0.00 78 1009.8
20260506095006 62 259 0.9 1.7 0.00 0.00 0.00 78 1009.8
20260506094512 62 254 0.0 1.7 0.00 0.00 0.00 78 1009.8
20260506094003 62 238 0.9 1.7 0.00 0.00 0.00 78 1009.8
20260506093503 62 249 0.0 4.3 0.00 0.00 0.00 78 1009.8
20260506093013 62 233 0.0 4.3 0.00 0.00 0.00 78 1009.8
20260506092506 62 260 0.0 1.7 0.00 0.00 0.00 78 1009.8
20260506092004 62 261 0.0 1.7 0.00 0.00 0.00 78 1009.9
20260506091513 63 258 0.0 1.7 0.00 0.00 0.00 78 1009.9
20260506091003 63 244 0.9 1.7 0.00 0.00 0.00 78 1010.0
20260506090507 63 264 0.0 1.7 0.00 0.00 0.00 78 1010.0
20260506090010 63 257 0.0 1.7 0.00 0.00 0.00 78 1010.0
20260506085503 63 246 0.0 1.7 0.00 0.00 0.00 78 1010.0
20260506085003 63 259 0.0 1.7 0.00 0.00 0.00 78 1010.2
20260506084514 63 259 0.0 1.7 0.00 0.00 0.00 78 1010.2
20260506084006 63 260 0.0 0.9 0.00 0.00 0.00 78 1010.2
20260506083505 63 261 0.0 0.9 0.00 0.00 0.00 78 1010.2
20260506083013 63 254 0.0 0.0 0.00 0.00 0.00 78 1010.2
20260506082505 63 257 0.0 0.0 0.00 0.00 0.00 77 1010.3
20260506082006 63 262 0.0 0.0 0.00 0.00 0.00 77 1010.3
20260506081512 63 263 0.0 0.0 0.00 0.00 0.00 77 1010.3
20260506081007 63 257 0.0 1.7 0.00 0.00 0.00 77 1010.3
20260506080503 63 252 0.0 1.7 0.00 0.00 0.00 77 1010.3
20260506073506 63 259 0.0 3.5 0.00 0.00 0.00 76 1010.2
20260506073016 63 244 0.9 3.5 0.00 0.00 0.00 76 1010.3
20260506072508 63 238 0.0 1.7 0.00 0.00 0.00 76 1010.3
20260506072008 63 270 0.0 2.6 0.00 0.00 0.00 76 1010.3
20260506071515 63 249 0.9 2.6 0.00 0.00 0.00 76 1010.3
20260506071005 63 266 0.9 1.7 0.00 0.00 0.00 76 1010.4
20260506070508 64 245 0.9 1.7 0.00 0.00 0.00 75 1010.4
20260506062507 64 249 0.9 1.7 0.00 0.00 0.00 73 1010.5
20260506062007 64 250 0.0 2.6 0.00 0.00 0.00 73 1010.6
20260506061516 64 250 0.9 2.6 0.00 0.00 0.00 73 1010.6
20260506061013 64 254 0.9 1.7 0.00 0.00 0.00 72 1010.5
20260506060505 65 264 0.0 1.7 0.00 0.00 0.00 72 1010.6
20260506051008 66 256 0.0 3.5 0.00 0.00 0.00 69 1011.0
20260506050505 66 247 0.9 1.7 0.00 0.00 0.00 69 1011.0
20260506045007 66 254 0.9 2.6 0.00 0.00 0.00 68 1011.1
20260506044528 66 252 0.9 2.6 0.00 0.00 0.00 67 1011.1
20260506044006 66 250 0.9 2.6 0.00 0.00 0.00 67 1011.1
20260506043507 66 247 0.9 2.6 0.00 0.00 0.00 67 1011.2
20260506043018 66 240 0.9 2.6 0.00 0.00 0.00 67 1011.2
20260506042512 66 257 0.9 1.7 0.00 0.00 0.00 67 1011.2
20260506042008 66 290 0.9 1.7 0.00 0.00 0.00 67 1011.2
20260506041517 67 259 0.0 1.7 0.00 0.00 0.00 66 1011.1
20260506041006 67 244 0.9 1.7 0.00 0.00 0.00 66 1011.2
20260506040513 67 250 0.0 1.7 0.00 0.00 0.00 66 1011.1
20260506040019 67 255 0.0 1.7 0.00 0.00 0.00 65 1011.1
20260506035506 67 242 0.0 2.6 0.00 0.00 0.00 65 1011.1
20260506035007 67 254 0.0 2.6 0.00 0.00 0.00 65 1011.1
20260506034521 67 290 0.0 3.5 0.00 0.00 0.00 65 1011.1
20260506034008 67 264 0.0 3.5 0.00 0.00 0.00 64 1011.1
20260506033509 67 261 0.9 3.5 0.00 0.00 0.00 64 1011.1
20260506033023 67 266 0.9 2.6 0.00 0.00 0.00 63 1011.2
20260506032508 67 247 0.9 1.7 0.00 0.00 0.00 63 1011.1
20260506032008 68 270 0.0 3.5 0.00 0.00 0.00 63 1011.1
20260506031530 68 264 0.9 3.5 0.00 0.00 0.00 62 1011.1